#timestamp,LO_Frequency,Hit,StdDev 
1638795615.7,286046999.9,N
1638795635.6,286047000.3,N
1638795655.4,286047001.0,N
1638795675.3,286046998.5,N
1638795695.1,286046998.1,N
1638795696.0,286046998.1,N
1638795715.8,286047000.4,N
1638795735.7,286047000.4,N
1638795755.5,286047002.4,N
1638795775.4,286046999.9,N
1638795795.2,286047000.5,N
1638795815.0,286046998.1,N
1638795815.9,286046998.1,N
1638795835.8,286047000.8,N
1638795855.6,286046998.2,N
1638795875.4,286046999.4,N
1638795895.3,286046998.9,N
1638795915.1,286046996.6,N
1638795935.9,286046998.6,N
1638795955.7,286046998.7,N
1638795975.5,286046998.1,N
1638795995.4,286046999.3,N
1638796015.2,286046996.7,N
1638796035.0,286046996.9,N
1638796035.9,286046996.9,N
1638796055.8,286046998.4,N
1638796075.6,286046998.3,N
1638796095.5,286046999.9,N
1638796115.3,286047000.0,N
1638796135.1,286047002.8,N
1638796155.9,286046999.8,N
1638796175.7,286047000.0,N
1638796195.5,286047000.6,N
1638796215.4,286047000.7,N
1638796235.2,286047000.8,N
1638796255.1,286047000.2,N
1638796256.0,286047000.2,N
1638796275.8,286047001.0,N
1638796295.6,286047000.1,N
1638796315.5,286047002.5,N
1638796335.3,286047002.6,N
1638796355.2,286047001.6,N
1638796375.9,286047001.8,N
1638796395.7,286047004.4,N
1638796415.6,286047002.4,N
1638796435.4,286046998.1,N
1638796455.2,286047000.1,N
1638796475.1,286047000.1,N
1638796476.0,286047000.1,N
1638796495.8,286046999.7,N
1638796515.7,286047002.3,N
1638796535.5,286047001.7,N
1638796555.3,286047002.1,N
1638796575.2,286047001.7,N
1638796595.0,286047002.6,N
1638796595.9,286047002.6,N
1638796615.7,286046999.9,N
1638796635.6,286047000.9,N
1638796655.4,286047000.2,N
1638796675.3,286047000.9,N
1638796695.1,286047001.0,N
1638796715.8,286047002.7,N
1638796735.7,286047002.8,N
1638796755.5,286047002.4,N
1638796775.3,286046999.8,N
1638796795.2,286047002.0,N
1638796815.0,286047002.5,N
1638796815.9,286047002.5,N
1638796835.8,286047001.9,N
1638796855.6,286047002.2,N
1638796875.4,286047001.6,N
1638796895.3,286047001.9,N
1638796915.1,286047001.4,N
1638796935.9,286047002.6,N
1638796955.7,286047000.1,N
1638796975.5,286047001.0,N
1638796995.5,286047000.2,N
1638797015.3,286046998.1,N
1638797035.2,286047000.9,N
1638797085.0,286047002.5,E
1638797095.9,286047000.1,N
1638797115.7,286046998.4,P
1638797135.5,286046998.3,N
1638797155.4,286047000.6,N
1638797175.2,286046998.5,N
1638797195.0,286046999.3,N
1638797196.0,286046999.3,N
1638797215.8,286046999.0,N
1638797235.6,286046997.8,N
1638797255.5,286046995.0,Y
1638797275.3,286046996.8,P
1638797295.1,286046997.8,N
1638797315.9,286046999.6,N
1638797335.7,286046999.4,N
1638797355.6,286046999.0,N
1638797375.4,286047001.2,N
1638797395.2,286047000.9,N
1638797415.1,286047000.4,N
1638797416.0,286047000.4,N
1638797435.8,286046999.7,N
1638797455.6,286047000.9,N
1638797475.5,286046998.3,N
1638797495.3,286047000.6,N
1638797515.2,286047000.0,N
1638797535.9,286047000.0,N
1638797555.7,286047000.2,N
1638797575.6,286046998.5,N
1638797595.4,286047000.9,N
1638797615.2,286047000.5,N
1638797635.1,286046999.0,N
1638797636.0,286046999.0,N
1638797655.8,286046999.0,N
1638797675.7,286047000.7,N
1638797695.5,286047001.1,N
1638797715.3,286047000.0,N
1638797735.2,286047001.2,N
1638797755.0,286047001.2,N
1638797755.9,286047001.2,N
1638797775.8,286047001.1,N
1638797795.6,286047000.6,N
1638797815.4,286047002.2,N
1638797835.3,286047001.9,N
1638797855.1,286047001.8,N
1638797875.9,286047002.3,N
1638797895.7,286046999.7,N
1638797915.5,286047000.3,N
1638797935.4,286046999.7,N
1638797955.2,286047002.3,N
1638797975.0,286047002.1,N
1638797976.0,286047002.1,N
1638797995.8,286047002.4,N
1638798015.6,286047002.3,N
1638798035.5,286047002.6,N
1638798055.3,286047001.6,N
1638798075.1,286047002.4,N
1638798095.9,286047002.2,N
1638798115.7,286047002.6,N
1638798135.6,286046999.7,N
1638798155.4,286047000.5,N
1638798175.2,286046998.5,N
1638798195.1,286047001.2,N
1638798196.0,286047001.2,N
1638798215.8,286047000.3,N
1638798235.7,286047000.6,N
1638798255.5,286047000.0,N
1638798275.3,286047000.4,N
1638798295.2,286047002.6,N
1638798315.0,286046999.7,N
1638798315.9,286046999.7,N
1638798335.7,286047000.6,N
1638798355.6,286047000.3,N
1638798375.4,286047000.3,N
1638798395.3,286047000.6,N
1638798415.1,286047000.5,N
1638798435.8,286047000.7,N
1638798455.7,286047002.6,N
1638798475.5,286047002.2,N
1638798495.4,286046999.7,N
1638798515.2,286047000.9,N
1638798535.0,286047002.0,N
1638798535.9,286047002.0,N
1638798555.8,286047001.7,N
1638798575.6,286047004.4,Y
1638798595.5,286047000.0,P
1638798615.3,286047001.7,P
1638798635.1,286047002.1,N
1638798655.9,286047004.3,Y
1638798675.7,286047001.8,P
1638798695.5,286047002.4,P
1638798715.4,286047002.7,P
1638798735.2,286047002.6,Y
1638798755.1,286046998.8,P
1638798756.0,286046998.8,N
1638798775.8,286046998.8,N
1638798795.6,286046998.4,N
1638798815.5,286047001.1,N
1638798835.3,286046998.8,N
1638798855.2,286046998.8,N
1638798875.9,286046998.2,N
1638798895.7,286047000.8,N
1638798915.6,286047000.9,N
1638798935.4,286047000.4,N
1638798955.2,286047001.1,N
1638798975.1,286046998.4,N
1638798976.0,286046998.4,N
1638798995.8,286046998.7,N
1638799015.7,286047001.1,N
1638799035.5,286046998.7,N
1638799055.3,286046998.3,N
1638799075.2,286046997.0,N
1638799095.0,286046997.0,N
1638799095.9,286046997.0,N
1638799115.7,286046996.7,N
1638799135.6,286046997.5,N
1638799155.4,286046997.8,N
1638799175.3,286046996.9,N
1638799195.1,286046997.1,N
1638799196.0,286046997.1,N
